EHI
21 19 16 13 11 9 9 9 11 14 16 16 14 11 6 4 3 4 5 4 4 5 4 2 2 2 3 3 3 3 4 3 1 1 2 2 1 1 1 2 2 1 0
22 20 17 17 16 14 11 11 13 14 14 14 13 11 8 5 5 5 5 5 5 4 3 3 2 2 3 2 3 3 4 4 2 2 2 1 1 2 2 2 1 0 0
23 22 22 22 22 18 15 15 16 16 14 13 13 13 11 9 8 7 6 6 6 4 2 2 2 2 2 3 4 4 4 4 4 4 4 3 2 2 2 2 0 0 0
22 24 26 27 25 20 18 18 18 17 16 14 15 17 16 14 11 9 8 8 7 4 2 1 1 1 2 3 4 5 4 3 3 4 4 3 1 1 2 1 1 1 1
25 27 28 27 25 23 22 22 20 18 17 18 19 21 20 17 13 9 7 7 7 5 3 2 1 0 1 1 2 4 3 2 1 1 2 1 0 0 1 1 1 1 2
31 30 28 26 26 26 25 24 23 20 20 23 24 23 21 16 10 6 5 6 6 5 3 3 1 0 0 0 0 1 1 0 0 0 0 0 0 0 0 0 0 1 1
32 30 29 30 32 31 29 27 26 25 25 26 26 23 20 15 8 4 3 5 6 4 3 3 2 1 1 0 0 0 0 0 0 0 0 0 0 0 0 0 0 0 0
32 31 32 35 38 38 36 33 32 32 32 31 28 25 21 14 7 2 2 4 5 5 4 4 3 3 2 1 0 0 0 0 0 0 0 0 0 0 0 0 0 0 0
37 36 35 37 40 42 42 40 39 39 38 35 31 27 23 14 6 1 1 3 4 4 4 3 3 2 2 1 0 0 0 0 0 0 0 0 0 0 0 0 0 0 0
41 40 39 38 40 43 45 44 43 41 38 35 31 28 23 15 6 1 1 2 3 3 3 2 1 1 1 0 0 0 0 0 0 0 0 0 0 0 0 0 0 0 0
43 42 41 40 41 43 45 45 41 37 34 32 30 27 22 15 7 2 1 2 3 3 2 1 0 0 0 0 0 0 0 0 0 0 0 0 0 0 0 0 0 0 0
47 45 43 42 41 41 43 42 36 32 29 28 27 23 17 13 8 3 1 2 3 4 3 1 0 0 0 0 0 0 0 0 0 0 0 0 0 0 0 0 0 0 0
50 48 46 43 41 41 40 37 33 29 26 24 21 16 12 11 9 5 2 1 2 3 2 1 0 0 0 0 0 0 0 0 0 0 0 0 0 0 0 0 0 0 0
49 49 48 45 43 41 38 34 31 28 25 22 19 15 12 13 11 8 5 3 2 2 1 0 0 0 0 0 0 0 0 0 0 0 0 0 0 0 0 0 0 0 0
45 46 46 45 43 40 36 30 25 23 19 17 18 16 15 13 10 7 6 4 2 1 1 1 1 1 0 0 0 0 0 0 0 0 0 0 0 0 0 0 0 0 0
41 41 42 43 43 41 36 28 20 14 9 8 10 11 10 8 5 3 2 2 1 1 1 2 2 2 1 0 0 0 0 0 0 0 0 0 0 0 0 1 1 1 1
38 37 37 39 40 38 34 28 21 12 6 3 3 3 3 2 1 0 0 0 0 0 1 2 3 2 1 0 0 0 0 0 0 0 0 0 1 1 1 2 3 3 3
34 34 34 35 34 34 32 28 23 17 11 8 4 2 1 1 0 0 0 0 0 0 1 2 2 2 1 0 1 1 1 2 1 0 1 1 2 2 2 3 4 4 4
31 31 32 32 31 30 29 25 22 20 17 15 11 6 2 1 0 0 0 0 1 1 1 1 2 2 2 2 2 3 3 3 2 2 2 3 3 3 3 2 3 4 4
28 26 28 29 29 29 28 25 21 19 19 18 17 13 7 3 2 2 1 1 1 2 3 3 4 4 5 5 4 4 5 4 4 3 4 4 3 3 2 1 2 3 4
22 22 21 23 25 26 27 25 22 19 18 18 18 15 9 6 6 6 5 3 2 3 6 7 7 6 6 6 6 6 6 6 5 5 5 4 3 2 1 1 2 3 2
18 17 16 17 19 20 21 22 20 18 16 15 16 13 9 7 8 8 7 6 5 7 10 11 9 6 6 6 6 6 6 6 6 6 5 4 3 2 1 1 2 2 1
15 15 14 14 16 15 15 16 17 16 15 14 13 11 8 7 8 8 8 8 9 10 10 10 7 5 4 5 6 6 6 6 6 5 5 4 3 2 1 0 1 1 0
13 13 13 13 13 12 11 11 12 13 13 13 12 10 8 7 7 8 9 9 10 10 8 7 6 4 3 3 3 4 3 3 3 3 3 2 2 1 0 0 0 0 0
11 12 12 10 10 9 7 6 8 9 10 11 11 9 8 7 8 9 10 10 9 9 7 7 7 6 3 2 2 2 1 1 1 1 1 1 1 0 0 0 0 0 0
10 11 10 8 7 7 5 4 5 7 8 8 9 9 7 6 7 9 11 10 9 9 8 8 8 6 4 2 1 2 1 0 0 0 1 1 0 0 0 0 0 0 0
Wind_Speed
7 6 5 4 4 4 2 2 2 1 1 1 1 1 1 1 1 1 1 1 1 1 1 1 1 1 1 1 1 1 1 1 2 2 3 4 3 2 3 3 3 3 5
8 7 6 5 5 4 3 3 2 2 2 2 1 1 1 1 1 0 1 1 1 1 1 1 1 0 0 1 1 0 0 0 2 3 3 4 4 3 3 2 2 3 4
8 8 7 6 6 5 4 3 3 2 2 2 2 2 1 1 1 0 0 0 1 1 1 1 1 1 0 1 1 0 1 1 1 3 3 3 3 3 3 3 3 2 3
9 8 8 7 6 6 5 4 4 3 3 2 2 2 2 2 1 1 0 0 0 1 1 1 1 1 1 0 1 0 0 1 2 2 3 3 3 3 3 3 3 3 2
8 8 8 7 6 6 5 5 4 4 4 3 2 2 2 2 1 0 1 1 1 1 1 1 2 3 5 2 2 0 1 1 2 2 2 3 3 3 3 2 2 2 3
8 8 8 7 7 6 6 5 5 4 4 3 3 3 2 1 4 2 2 1 1 1 1 1 2 3 3 2 4 4 3 1 1 1 2 2 2 3 2 2 2 2 2
9 8 8 8 8 7 7 6 6 5 5 4 3 3 3 3 4 2 2 2 2 1 1 0 1 3 2 2 3 3 1 1 2 3 2 2 2 2 3 4 3 3 2
9 9 9 9 8 8 7 7 6 5 4 4 4 4 3 3 4 3 2 4 2 2 1 1 0 1 1 1 2 2 2 2 2 3 2 2 2 1 3 4 3 4 4
9 9 9 9 8 8 8 7 6 5 5 5 4 4 4 4 4 4 4 4 3 3 2 1 1 1 2 2 2 2 2 2 2 1 2 1 1 1 3 4 4 5 4
8 8 8 9 9 8 8 7 6 5 5 5 4 4 4 4 5 5 5 4 3 3 3 3 2 0 2 2 3 3 3 2 2 4 3 4 4 4 5 5 5 5 4
7 7 7 8 8 8 7 6 6 5 5 5 4 5 5 4 7 7 6 4 3 3 3 3 3 5 4 4 5 3 2 3 4 4 4 4 4 4 5 5 5 5 5
7 7 7 8 7 7 7 7 6 6 6 5 5 5 5 5 5 7 8 6 5 3 3 2 3 7 5 5 4 2 2 5 4 4 4 3 4 4 3 4 4 5 5
7 7 7 7 6 6 7 7 7 6 6 5 5 5 4 4 5 8 9 8 7 5 2 1 3 6 6 6 6 5 6 6 5 4 4 4 4 3 3 4 5 5 6
7 6 6 6 6 6 6 6 6 6 6 5 5 5 4 4 4 5 6 7 7 6 4 4 6 6 6 3 5 7 6 5 5 5 4 3 3 3 4 4 5 5 5
7 6 6 7 6 6 6 4 5 4 4 5 5 4 4 4 3 3 3 4 4 4 4 4 4 5 5 5 5 5 5 5 5 5 4 4 4 4 4 4 4 5 5
6 6 6 6 6 6 6 5 4 3 4 4 3 4 3 2 3 5 5 4 3 4 4 4 5 5 5 5 5 5 5 5 5 5 5 4 4 4 4 4 5 5 5
6 6 5 6 6 6 6 6 5 5 6 7 7 7 6 5 5 6 6 5 5 6 6 5 5 5 5 5 5 5 5 4 4 5 5 4 5 5 4 5 5 5 5
7 6 6 6 6 5 5 5 5 5 5 5 7 10 9 8 7 7 7 6 5 6 6 6 6 6 6 5 5 5 4 4 4 5 5 5 5 5 5 5 5 5 5
6 5 5 5 5 5 5 5 5 6 5 4 4 6 8 8 7 7 9 6 6 6 6 6 6 6 6 5 5 4 4 4 4 5 5 5 5 5 5 6 5 5 6
4 4 5 5 5 5 5 5 5 5 5 5 5 4 4 5 5 6 7 7 6 6 6 5 5 5 5 5 4 4 5 5 5 6 5 5 5 5 6 7 5 5 5
4 4 5 5 4 4 4 4 5 5 5 5 5 4 5 6 5 6 6 6 6 5 5 5 5 5 5 5 5 6 6 5 5 5 5 5 5 5 5 5 5 5 5
3 3 3 3 3 3 3 4 4 4 5 5 4 4 7 7 5 5 5 5 6 5 5 4 5 5 4 5 5 6 6 6 5 5 5 5 5 5 5 4 5 5 5
3 3 3 3 3 3 4 4 4 4 4 5 5 4 5 5 5 5 5 5 5 5 4 4 5 5 4 4 5 5 5 5 5 5 5 5 5 4 4 4 5 5 5
3 3 3 3 3 3 4 4 4 4 5 5 5 4 5 5 5 5 5 4 4 4 4 5 5 6 6 5 4 3 3 3 4 4 6 6 5 4 4 4 5 6 6
2 2 3 3 3 4 4 4 4 4 4 4 4 4 5 5 5 5 5 5 5 5 5 5 5 5 6 6 5 3 1 1 2 4 4 5 5 5 5 6 5 5 5
3 2 3 3 3 3 4 4 4 4 4 4 4 4 5 5 5 5 5 4 5 5 5 5 5 6 6 6 4 3 3 2 2 3 5 5 5 5 5 5 5 5 5
Wind_Direction
175 176 174 173 172 177 182 174 161 156 151 148 130 108 79 67 59 356 340 48 346 358 317 314 319 334 325 265 221 238 226 214 169 143 126 121 142 148 133 149 145 145 119
173 170 175 176 174 177 173 174 168 167 167 155 152 141 132 96 78 35 352 16 2 1 347 346 318 343 35 327 329 309 118 164 184 153 147 151 162 162 154 179 151 139 123
172 172 176 181 179 181 179 176 171 171 167 154 154 156 149 126 119 119 358 4 10 21 18 356 349 21 9 59 292 256 184 166 158 162 161 149 163 164 170 176 155 163 156
174 176 180 185 185 182 181 179 179 177 170 168 164 154 154 149 142 150 159 151 44 51 47 45 50 56 58 133 201 215 198 164 159 175 156 158 160 164 198 190 178 178 181
177 180 180 181 181 180 181 183 184 185 177 168 165 157 161 168 139 72 216 151 104 91 92 86 81 57 39 8 345 17 182 213 182 173 164 162 159 176 205 205 192 182 168
181 182 176 176 179 181 182 181 181 183 182 175 177 172 177 141 77 44 303 151 147 135 107 107 130 129 96 70 31 27 9 283 266 239 191 178 182 198 204 225 216 217 194
182 181 177 178 181 182 184 182 184 184 181 183 184 184 178 118 111 139 276 245 173 141 131 190 243 103 165 164 149 158 120 31 335 283 262 246 210 204 223 224 223 251 264
182 183 182 183 183 181 185 186 187 185 181 183 185 187 183 144 141 170 241 221 185 172 175 184 221 147 141 266 211 180 184 169 229 254 275 274 263 226 226 240 234 223 221
184 186 185 185 183 183 187 187 186 185 185 186 183 187 189 159 155 180 234 208 183 182 188 183 234 185 85 308 243 213 203 183 148 79 360 349 17 238 255 240 226 233 228
187 187 184 184 185 186 186 186 183 185 190 193 185 187 192 183 162 184 229 224 198 195 180 176 144 206 138 230 235 228 231 238 215 177 188 203 206 195 218 248 248 250 250
179 179 181 183 185 185 181 181 179 184 189 198 193 191 194 196 170 183 214 238 228 218 202 198 153 149 182 223 258 254 255 262 236 224 214 208 208 208 211 220 246 265 266
172 176 181 186 189 180 178 178 181 184 189 196 198 204 196 191 190 187 200 229 264 237 233 221 137 152 192 220 236 234 241 252 242 237 236 231 229 228 224 231 237 251 268
173 178 183 187 189 184 183 181 183 187 201 203 204 207 203 192 181 185 197 212 225 237 236 94 126 168 195 207 211 221 227 236 242 243 243 241 242 241 238 228 224 232 240
176 177 183 184 187 186 192 191 194 193 203 209 212 215 212 203 204 187 193 200 203 217 223 174 175 191 223 233 198 211 231 246 256 254 256 253 244 229 234 239 238 229 232
181 183 189 189 190 189 193 200 206 207 215 222 222 218 222 220 201 187 217 216 214 208 213 207 203 198 209 219 221 223 228 224 234 246 250 250 243 239 238 238 243 245 243
188 192 200 197 189 196 193 194 186 212 176 197 244 261 237 219 172 185 217 234 215 191 212 218 220 222 226 228 229 225 225 230 236 238 241 246 248 245 242 238 239 244 247
199 198 205 204 198 202 202 205 200 194 198 209 217 223 229 208 195 198 207 210 204 190 213 227 232 236 240 237 237 240 236 231 240 243 243 246 248 248 247 247 246 248 250
206 200 209 206 206 205 208 213 217 216 209 211 207 211 210 204 203 202 192 186 198 206 226 233 236 237 238 239 237 239 241 233 230 237 239 242 245 245 248 249 247 250 250
207 203 209 213 210 211 214 220 223 226 228 226 212 188 192 194 196 199 189 212 222 221 226 231 239 241 242 240 238 235 235 234 235 238 238 241 243 242 245 248 247 237 247
202 192 207 213 212 210 213 222 225 225 228 231 229 217 178 191 206 198 206 223 229 230 234 237 240 245 246 246 239 234 232 230 230 236 239 239 240 241 246 251 253 246 244
192 175 194 213 212 215 221 226 228 229 232 233 234 213 196 222 222 217 218 222 228 233 236 241 239 238 237 238 237 233 232 233 232 238 239 243 243 243 247 250 250 250 249
198 180 194 211 213 218 229 231 235 236 237 239 235 201 187 222 230 225 223 224 226 229 231 234 241 238 235 237 237 236 234 236 238 241 244 248 247 246 246 249 254 256 254
206 198 201 213 223 207 227 236 238 238 238 237 236 226 213 231 240 235 233 235 233 231 227 228 239 241 235 232 237 241 242 242 243 244 247 249 253 249 243 245 247 252 255
204 207 216 220 228 229 232 237 241 244 244 240 237 230 226 228 240 241 241 240 238 235 233 231 234 238 240 240 236 234 240 262 262 251 249 256 257 258 251 250 250 252 256
223 226 235 236 238 240 242 245 246 248 248 247 245 241 237 235 237 235 232 233 233 234 236 236 236 233 230 230 231 228 150 204 257 275 253 252 255 256 253 247 247 250 255
247 236 241 248 250 254 255 252 248 249 252 252 249 248 247 244 241 239 234 231 231 231 235 234 228 227 228 226 214 192 165 178 217 257 259 246 243 247 257 257 255 251 250